Terug naar catalogus

TITAN 3C TRANSTAGE DEB

LostHEO
NORAD 28808·DEBRIS·🇺🇸 United States

Gelanceerd Dec 21, 1965 vanaf Cape Canaveral Space Force Station

Loading…

Volgende Passages (komende 24 uur)

TLE

VerouderdSource: Space-Track

Epoch: Aug 6, 2025, 10:55 UTC

1 28808U 65108CA  25218.45519875  .00003872  00000-0  10825-2 0  9996
2 28808  27.9900 347.3504 5847207 231.6751  59.8857  4.24842145 50044

Volg TITAN 3C TRANSTAGE DEB in realtime met AllMySat

Download on the App Store